CZ-6A DEB, 60654

Orbit data source: Space-Track

CZ-6A DEB, 60654 is space debris in LEO originally from a launch on Tue, 06 Aug 2024 UTC launched from the Taiyaun Space Center, China (TSC). Debris objects in space refer to the collection of defunct objects orbiting the Earth. Examples of debris include non-operational satellites, rocket bodies, and fragments generated from explosions, collisions, or faulty payload assembly.

Loading next visibility...
Identifier
60654, 2024-140BF
Orbit
LEO
Country
Flag of CNCN / PRC
Related business
Manufacturer
SAST
Mission
Spacecraft
Bus & Motor
Unknown
Mass
Unknown
Launch date (UTC)
2024-08-06 (2 years ago)
Launch vehicle
Unknown
Launch site
Taiyaun Space Center, China (TSC)
Object type
Payload
Rocket body
Debris
Shape & HBR
Unknown shape, 0.2 m
Radar Cross Section
Medium (>0.1 m² and <1 m²)

Expand to show TLE details & history
Last TLE update: 14 hours ago

TLE from 14 hours ago
0 CZ-6A DEB
1 60654U 24140BF  26171.27570480  .00008779  00000-0  11081-2 0  9996
2 60654  88.9752 266.0237 0138557 209.6119 149.7208 14.75211795 99837
Epoch: 2026-06-20T06:37Z
TLE epoch observation values (Epoch: 2026-06-20T06:37:00.894Z)
Latitude
0.00002°
Longitude
-101.72268°
Altitude
731.995 km
Speed
7.444 km/s
True Right ascension
17h 44m 05s
True Declination
0° 00' 00"
Sunlit
Object was in full shadow at epoch
Visualization orbit readout
Latitude
Unknown
Longitude
Unknown
Altitude
Unknown
Speed
Unknown
Apparent Right ascension
Unknown
Apparent Declination
Unknown
Sunlit
N/A
Visualization observer readout
Local Sidereal Time
07:22:44
Azimuth
Unknown
Elevation
Unknown
Doppler factor
Unknown
Orbital elements
Apogee altitude
738.611 km
Perigee altitude
544.091 km
Semi-major axis
7,019.488 km
Eccentricity
0.01386
Inclination
88.9752°
RAAN
266.0237°
Arg. of periapsis
209.6119°
True anomaly
150.50953°
Mean anomaly
149.7208°
Eccentric anomaly
150.11634°
Mean motion
3.6905 °/min
Orbital period
97.55 mins
BSTAR
0.0011081
Loading maneuver chart data...
Computing Atmospheric mass density...
Loading historical data...
Loading historical data...
Loading historical data...
Loading historical data...
Loading historical data...
Loading historical data...
Loading historical data...

Documentation

Showing up to 5 results
|